WB3EGK Weather Reports


Display with metric or nautical units.
time (UTC)temp
F
wind
direction
speed
MPH
gust
MPH
rain 1hr
in
rain 24hr
in
rain mn
in
humidity
%
barometer
mb
20260503233545 55 246 4.0 5.0 0.00 0.00 0.00 1 1009.6
20260503233041 56 256 2.0 2.0 0.00 0.00 0.00 1 1009.7
20260503232539 56 278 3.0 3.0 0.00 0.00 0.00 1 1009.8
20260503232036 57 265 3.0 3.0 0.00 0.00 0.00 1 1009.8
20260503231534 56 135 4.0 9.0 0.00 0.00 0.00 1 1009.5
20260503231030 56 255 3.0 3.0 0.00 0.00 0.00 1 1009.8
20260503230527 56 292 5.0 8.0 0.00 0.00 0.00 1 1009.9
20260503230025 56 262 4.0 5.0 0.00 0.00 0.00 1 1009.9
20260503225521 56 216 2.0 3.0 0.00 0.00 0.00 1 1009.7
20260503225016 56 284 3.0 3.0 0.00 0.00 0.00 1 1009.8
20260503224514 56 288 4.0 6.0 0.00 0.00 0.00 1 1009.8
20260503224012 56 271 1.0 2.0 0.00 0.00 0.00 1 1009.8
20260503223509 56 253 5.0 6.0 0.00 0.00 0.00 1 1009.7
20260503223005 56 293 6.0 8.0 0.00 0.00 0.00 1 1009.9
20260503222503 56 273 4.0 5.0 0.00 0.00 0.00 1 1010.0
20260503222001 57 251 3.0 5.0 0.00 0.00 0.00 1 1010.1
20260503221459 56 299 4.0 5.0 0.00 0.00 0.00 1 1009.9
20260503220956 57 240 3.0 3.0 0.00 0.00 0.00 1 1009.8
20260503220452 57 305 4.0 5.0 0.00 0.00 0.00 1 1009.8
20260503215949 57 278 7.0 8.0 0.00 0.00 0.00 1 1009.6
20260503215446 57 290 6.0 8.0 0.00 0.00 0.00 1 1009.6
20260503214943 57 290 4.0 5.0 0.00 0.00 0.00 1 1009.7
20260503214441 57 289 4.0 5.0 0.00 0.00 0.00 1 1009.7
20260503213938 58 243 5.0 6.0 0.00 0.00 0.00 1 1009.9
20260503213437 59 204 6.0 7.0 0.00 0.00 0.00 1 1009.7
20260503212932 59 240 6.0 8.0 0.00 0.00 0.00 1 1009.5
20260503212430 57 289 5.0 7.0 0.00 0.00 0.00 1 1009.4
20260503211927 57 232 3.0 5.0 0.00 0.00 0.00 1 1009.4
20260503211424 59 219 4.0 6.0 0.00 0.00 0.00 1 1009.5
20260503210919 57 269 3.0 7.0 0.00 0.00 0.00 1 1009.5
20260503210416 58 284 7.0 8.0 0.00 0.00 0.00 1 1009.4
20260503205911 59 279 7.0 9.0 0.00 0.00 0.00 1 1009.5
20260503205409 59 224 4.0 6.0 0.00 0.00 0.00 1 1009.4
20260503204904 59 218 4.0 5.0 0.00 0.00 0.00 1 1009.5
20260503204402 57 264 5.0 6.0 0.00 0.00 0.00 1 1009.6
20260503203859 59 292 10.0 13.0 0.00 0.00 0.00 1 1009.9
20260503203356 58 205 4.0 5.0 0.00 0.00 0.00 1 1010.0
20260503202853 58 286 6.0 7.0 0.00 0.00 0.00 1 1009.9
20260503202351 58 267 2.0 3.0 0.00 0.00 0.00 1 1009.8
20260503201849 59 232 6.0 7.0 0.00 0.00 0.00 1 1009.7
20260503201346 58 220 4.0 6.0 0.00 0.00 0.00 1 1009.9
20260503200844 57 280 5.0 6.0 0.00 0.00 0.00 1 1010.2
20260503200339 57 294 5.0 6.0 0.00 0.00 0.00 1 1010.0
20260503195837 57 318 7.0 8.0 0.00 0.00 0.00 1 1010.3
20260503195333 57 284 5.0 6.0 0.00 0.00 0.00 1 1010.3
20260503194830 57 309 4.0 5.0 0.00 0.00 0.00 1 1010.5
20260503194326 57 282 10.0 14.0 0.00 0.00 0.00 1 1010.4
20260503193823 57 234 5.0 6.0 0.00 0.00 0.00 1 1010.4
20260503193319 56 249 4.0 5.0 0.00 0.00 0.00 1 1010.6
20260503192815 57 259 7.0 8.0 0.00 0.00 0.00 1 1010.3
20260503192310 57 252 6.0 7.0 0.00 0.00 0.00 1 1010.8
20260503191806 57 251 5.0 6.0 0.00 0.00 0.00 1 1010.6
20260503191304 58 263 4.0 5.0 0.00 0.00 0.00 1 1010.7
20260503190800 56 302 4.0 6.0 0.00 0.00 0.00 1 1011.0
20260503190257 56 257 9.0 11.0 0.00 0.00 0.00 1 1010.8
20260503185755 56 283 5.0 7.0 0.00 0.00 0.00 1 1011.0
20260503185250 57 220 6.0 7.0 0.00 0.00 0.00 1 1010.8
20260503184744 58 228 4.0 6.0 0.00 0.00 0.00 1 1011.0
20260503184241 57 287 4.0 7.0 0.00 0.00 0.00 1 1011.0
20260503183737 57 292 3.0 5.0 0.00 0.00 0.00 1 1011.4
20260503183235 56 308 7.0 8.0 0.00 0.00 0.00 1 1011.4
20260503182733 57 284 5.0 5.0 0.00 0.00 0.00 1 1011.5
20260503182232 56 292 4.0 5.0 0.00 0.00 0.00 1 1011.3
20260503181728 56 220 5.0 6.0 0.00 0.00 0.00 1 1011.4
20260503181225 56 274 9.0 11.0 0.00 0.00 0.00 1 1011.4
20260503180721 56 345 2.0 5.0 0.00 0.00 0.00 1 1011.7
20260503180220 55 273 4.0 7.0 0.00 0.00 0.00 1 1011.6
20260503175716 55 287 5.0 7.0 0.00 0.00 0.00 1 1011.7
20260503175214 56 289 3.0 3.0 0.00 0.00 0.00 1 1011.6
20260503174709 56 193 0.0 0.0 0.00 0.00 0.00 1 1012.0
20260503174207 55 255 8.0 15.0 0.00 0.00 0.00 1 1011.9
20260503173702 55 225 5.0 6.0 0.00 0.00 0.00 1 1011.6
20260503173159 55 255 5.0 7.0 0.00 0.00 0.00 1 1012.0
20260503172655 54 212 5.0 7.0 0.00 0.00 0.00 1 1012.2
20260503172153 54 266 5.0 7.0 0.00 0.00 0.00 1 1012.0
20260503171649 55 234 3.0 5.0 0.00 0.00 0.00 1 1012.1
20260503171146 54 337 2.0 2.0 0.00 0.00 0.00 1 1012.2
20260503170643 54 271 3.0 3.0 0.00 0.00 0.00 1 1012.3
20260503170140 54 213 7.0 8.0 0.00 0.00 0.00 1 1012.1
20260503150531 48 288 4.0 5.0 0.00 0.00 0.00 1 1013.2
20260503131420 42 216 2.0 2.0 0.00 0.00 0.00 1 1013.6
20260503130916 42 277 5.0 6.0 0.00 0.00 0.00 1 1013.7
20260503130414 42 309 4.0 5.0 0.00 0.00 0.00 1 1013.7
20260503110818 34 109 1.0 1.0 0.00 0.00 0.00 1 1013.3
20260503110315 33 134 0.0 0.0 0.00 0.00 0.00 1 1013.0
20260503100241 32 89 0.0 0.0 0.00 0.00 0.00 1 1012.5
20260503090200 32 98 0.0 0.0 0.00 0.00 0.00 1 1012.9
20260503081630 32 79 0.0 0.0 0.00 0.00 0.00 1 1012.9
20260503081127 32 109 0.0 0.0 0.00 0.00 0.00 1 1012.8
20260503080623 32 70 0.0 0.0 0.00 0.00 0.00 1 1012.8
20260503080120 31 66 0.0 0.0 0.00 0.00 0.00 1 1012.9
20260503072557 32 74 0.0 0.0 0.00 0.00 0.00 1 1012.8
20260503072054 32 64 1.0 2.0 0.00 0.00 0.00 1 1012.7
20260503071551 32 71 2.0 2.0 0.00 0.00 0.00 1 1012.7
20260503071048 32 64 2.0 2.0 0.00 0.00 0.00 1 1012.8
20260503070544 32 65 0.0 0.0 0.00 0.00 0.00 1 1012.8
20260503054957 33 62 1.0 1.0 0.00 0.00 0.00 1 1013.3
20260503054453 33 58 1.0 1.0 0.00 0.00 0.00 1 1013.3
20260503053951 33 51 1.0 2.0 0.00 0.00 0.00 1 1013.1
20260503053449 33 53 1.0 1.0 0.00 0.00 0.00 1 1013.3
20260503052945 33 66 2.0 2.0 0.00 0.00 0.00 1 1013.3
20260503052443 33 61 2.0 2.0 0.00 0.00 0.00 1 1013.2
20260503051939 33 60 2.0 2.0 0.00 0.00 0.00 1 1013.3
20260503051435 33 60 0.0 0.0 0.00 0.00 0.00 1 1013.4
20260503050932 33 66 0.0 0.0 0.00 0.00 0.00 1 1013.3
20260503050428 33 66 0.0 0.0 0.00 0.00 0.00 1 1013.5
20260503045926 33 36 0.0 0.0 0.00 0.00 0.00 1 1013.4
20260503045423 34 60 0.0 0.0 0.00 0.00 0.00 1 1013.5
20260503044920 34 51 0.0 0.0 0.00 0.00 0.00 1 1013.5
20260503044417 34 60 0.0 0.0 0.00 0.00 0.00 1 1013.5
20260503043914 34 62 0.0 0.0 0.00 0.00 0.00 1 1013.5
20260503043411 34 68 0.0 0.0 0.00 0.00 0.00 1 1013.4
20260503042907 34 53 0.0 0.0 0.00 0.00 0.00 1 1013.5
20260503042404 34 48 0.0 0.0 0.00 0.00 0.00 1 1013.7
20260503041900 34 55 0.0 0.0 0.00 0.00 0.00 1 1013.5
20260503041357 35 53 0.0 0.0 0.00 0.00 0.00 1 1013.6
20260503040855 35 52 1.0 1.0 0.00 0.00 0.00 1 1013.5
20260503040352 34 57 1.0 2.0 0.00 0.00 0.00 1 1013.4
20260503035849 35 42 0.0 0.0 0.00 0.02 0.02 1 1013.7
20260503035346 35 58 0.0 0.0 0.00 0.02 0.02 1 1013.4
20260503034843 35 55 0.0 0.0 0.00 0.02 0.02 1 1013.5
20260503034340 35 58 0.0 0.0 0.00 0.02 0.02 1 1013.4
20260503033838 35 66 0.0 0.0 0.00 0.02 0.02 1 1013.6
20260503033335 35 62 0.0 0.0 0.00 0.02 0.02 1 1013.5
20260503032833 35 38 0.0 0.0 0.00 0.02 0.02 1 1013.6
20260503032332 35 41 0.0 0.0 0.00 0.02 0.02 1 1013.6
20260503031829 35 59 0.0 0.0 0.00 0.02 0.02 1 1013.7
20260503031326 35 50 0.0 0.0 0.00 0.02 0.02 1 1013.7
20260503030822 35 69 0.0 0.0 0.00 0.02 0.02 1 1013.6
20260503030319 35 66 0.0 0.0 0.00 0.02 0.02 1 1013.7
20260503025816 36 64 0.0 0.0 0.00 0.02 0.02 1 1013.7
20260503025313 36 60 0.0 0.0 0.00 0.02 0.02 1 1013.7
20260503024810 36 60 0.0 0.0 0.00 0.02 0.02 1 1013.8
20260503024307 36 60 0.0 0.0 0.00 0.02 0.02 1 1013.7
20260503023804 37 60 0.0 0.0 0.00 0.02 0.02 1 1013.9
20260503023301 37 60 0.0 0.0 0.00 0.02 0.02 1 1014.0
20260503022757 37 60 0.0 0.0 0.00 0.02 0.02 1 1013.9
20260503022257 37 58 0.0 0.0 0.00 0.02 0.02 1 1014.0
20260503021754 37 62 0.0 0.0 0.00 0.02 0.02 1 1014.1
20260503021250 37 71 0.0 0.0 0.00 0.02 0.02 1 1014.0
20260503020748 37 63 0.0 0.0 0.00 0.02 0.02 1 1013.6
20260503020245 37 23 0.0 0.0 0.00 0.02 0.02 1 1014.0
20260503015741 37 53 0.0 0.0 0.00 0.02 0.02 1 1013.8
20260503015239 37 66 0.0 0.0 0.00 0.02 0.02 1 1013.9
20260503014734 37 81 0.0 0.0 0.00 0.02 0.02 1 1013.9
20260503014233 37 75 0.0 0.0 0.00 0.02 0.02 1 1013.8
20260503013729 37 81 0.0 0.0 0.00 0.02 0.02 1 1013.8
20260503013227 37 47 0.0 0.0 0.00 0.02 0.02 1 1013.9
20260503012724 37 9 0.0 0.0 0.00 0.02 0.02 1 1013.9
20260503012221 37 49 0.0 0.0 0.00 0.02 0.02 1 1013.8
20260503011717 37 50 0.0 0.0 0.00 0.02 0.02 1 1014.0
20260503011215 37 50 0.0 0.0 0.00 0.02 0.02 1 1013.8
20260503010710 38 23 0.0 0.0 0.00 0.02 0.02 1 1013.7
20260503010208 38 29 0.0 0.0 0.00 0.02 0.02 1 1013.8
20260503005705 38 52 0.0 0.0 0.00 0.02 0.02 1 1013.8
20260503005202 38 36 0.0 0.0 0.00 0.02 0.02 1 1013.7
20260503004658 38 35 0.0 0.0 0.00 0.02 0.02 1 1013.8
20260503004157 38 347 0.0 0.0 0.00 0.02 0.02 1 1013.7
20260503003654 38 288 2.0 2.0 0.00 0.02 0.02 1 1013.7
20260503003151 38 294 2.0 2.0 0.00 0.02 0.02 1 1013.8
20260503002648 38 320 1.0 2.0 0.00 0.02 0.02 1 1013.6
20260503002144 39 339 0.0 0.0 0.00 0.02 0.02 1 1013.8
20260503001640 39 323 1.0 2.0 0.00 0.02 0.02 1 1013.7
20260503001137 39 294 1.0 1.0 0.00 0.02 0.02 1 1013.7
20260503000635 39 37 0.0 0.0 0.00 0.02 0.02 1 1013.4
20260503000132 39 307 1.0 1.0 0.00 0.02 0.02 1 1013.6
20260502235629 39 295 0.0 0.0 0.00 0.02 0.02 1 1013.7
20260502235127 39 276 2.0 2.0 0.00 0.02 0.02 1 1013.4
20260502234622 39 332 1.0 2.0 0.00 0.02 0.02 1 1013.7
20260502234120 39 283 3.0 3.0 0.00 0.02 0.02 1 1013.6